CW3202 Weather Reports


Display with metric or nautical units.
time (UTC)temp
F
wind
direction
speed
MPH
gust
MPH
rain 1hr
in
rain 24hr
in
rain mn
in
humidity
%
barometer
mb
20260831033424 60 211 0.0 0.0 0.00 0.00 0.00 85 1016.4
20260831032925 60 211 0.0 0.0 0.00 0.00 0.00 84 1016.3
20260831032224 61 211 0.0 1.0 0.00 0.00 0.00 83 1016.4
20260831031524 61 211 0.0 3.0 0.00 0.00 0.00 84 1016.3
20260831031024 62 211 0.0 3.0 0.00 0.00 0.00 83 1016.3
20260831030525 62 196 3.0 3.0 0.00 0.00 0.00 81 1016.3
20260831025824 62 196 3.0 4.0 0.00 0.00 0.00 80 1016.3
20260831025125 63 195 4.0 4.0 0.00 0.00 0.00 79 1016.3
20260831024624 64 220 2.0 2.0 0.00 0.00 0.00 78 1016.3
20260831024124 64 220 1.0 4.0 0.00 0.00 0.00 77 1016.5
20260831023625 65 220 1.0 5.0 0.00 0.00 0.00 76 1016.5
20260831023125 65 200 3.0 5.0 0.00 0.00 0.00 76 1016.5
20260831022624 65 198 2.0 4.0 0.00 0.00 0.00 75 1016.5
20260831022124 66 231 1.0 5.0 0.00 0.00 0.00 75 1016.5
20260831021625 66 227 3.0 5.0 0.00 0.00 0.00 74 1016.5
20260831021125 66 227 4.0 5.0 0.00 0.00 0.00 73 1016.6
20260831020624 66 207 3.0 7.0 0.00 0.00 0.00 73 1016.8
20260831020126 67 222 4.0 7.0 0.00 0.00 0.00 72 1016.7
20260831015625 67 209 6.0 7.0 0.00 0.00 0.00 72 1016.7
20260831015125 67 235 7.0 7.0 0.00 0.00 0.00 71 1016.7
20260831014625 68 210 2.0 6.0 0.00 0.00 0.00 70 1016.8
20260831014124 68 225 3.0 7.0 0.00 0.00 0.00 71 1017.0
20260831013625 68 252 1.0 8.0 0.00 0.00 0.00 71 1017.0
20260831013125 67 229 7.0 8.0 0.00 0.00 0.00 70 1017.0
20260831012625 67 219 7.0 7.0 0.00 0.00 0.00 71 1017.1
20260831012124 68 223 3.0 5.0 0.00 0.00 0.00 71 1017.2
20260831011624 67 201 3.0 8.0 0.00 0.00 0.00 70 1017.2
20260831010925 67 233 5.0 8.0 0.00 0.00 0.00 70 1017.3
20260831010424 67 212 4.0 6.0 0.00 0.00 0.00 70 1017.4
20260831005925 67 228 2.0 6.0 0.00 0.00 0.00 70 1017.4
20260831005424 67 202 6.0 6.0 0.00 0.00 0.00 70 1017.4
20260831004924 68 205 4.0 6.0 0.00 0.00 0.00 70 1017.5
20260831004425 68 204 6.0 7.0 0.00 0.00 0.00 69 1017.5
20260831003925 68 220 3.0 7.0 0.00 0.00 0.00 70 1017.5
20260831003227 68 206 7.0 8.0 0.00 0.00 0.00 70 1017.5
20260831002524 68 211 6.0 8.0 0.00 0.00 0.00 69 1017.6
20260831002025 68 214 6.0 9.0 0.00 0.00 0.00 68 1017.6
20260831001125 68 232 8.0 10.0 0.00 0.00 0.00 68 1017.6
20260831000624 68 281 3.0 10.0 0.00 0.00 0.00 68 1017.6
20260831000124 68 217 10.0 10.0 0.00 0.00 0.00 67 1017.8
20260830235625 68 189 2.0 11.0 0.00 0.00 0.00 68 1017.7
20260830234924 68 256 2.0 12.0 0.00 0.00 0.00 68 1017.8
20260830234424 68 235 2.0 12.0 0.00 0.00 0.00 67 1017.8
20260830233725 68 217 6.0 8.0 0.00 0.00 0.00 68 1017.8
20260830233225 68 214 4.0 8.0 0.00 0.00 0.00 67 1017.9
20260830232725 68 259 7.0 8.0 0.00 0.00 0.00 67 1017.9
20260830232225 68 215 7.0 7.0 0.00 0.00 0.00 65 1018.0
20260830231725 69 252 3.0 6.0 0.00 0.00 0.00 68 1018.1
20260830231225 69 200 6.0 7.0 0.00 0.00 0.00 66 1018.2
20260830230724 68 236 1.0 7.0 0.00 0.00 0.00 65 1018.2
20260830230224 68 217 7.0 7.0 0.00 0.00 0.00 66 1018.2
20260830225724 68 249 1.0 7.0 0.00 0.00 0.00 66 1018.3
20260830225224 68 250 3.0 7.0 0.00 0.00 0.00 66 1018.4
20260830224724 68 249 3.0 6.0 0.00 0.00 0.00 65 1018.4
20260830224224 69 320 6.0 6.0 0.00 0.00 0.00 64 1018.5
20260830223724 69 272 2.0 8.0 0.00 0.00 0.00 65 1018.4
20260830223224 69 194 6.0 8.0 0.00 0.00 0.00 65 1018.4
20260830222725 69 144 2.0 5.0 0.00 0.00 0.00 65 1018.5
20260830222224 68 263 2.0 5.0 0.00 0.00 0.00 65 1018.6
20260830221724 68 235 3.0 4.0 0.00 0.00 0.00 67 1018.7
20260830221224 68 355 4.0 5.0 0.00 0.00 0.00 66 1018.6
20260830220724 69 234 3.0 8.0 0.00 0.00 0.00 64 1018.7
20260830220225 68 292 5.0 8.0 0.00 0.00 0.00 65 1018.6
20260830215524 68 213 3.0 9.0 0.00 0.00 0.00 64 1018.7
20260830215025 69 199 7.0 9.0 0.00 0.00 0.00 64 1018.8
20260830214525 68 211 1.0 6.0 0.00 0.00 0.00 63 1018.9
20260830213825 69 360 3.0 5.0 0.00 0.00 0.00 63 1019.0
20260830213325 69 360 1.0 9.0 0.00 0.00 0.00 62 1019.1
20260830212824 68 212 2.0 9.0 0.00 0.00 0.00 64 1019.2
20260830211925 69 236 6.0 9.0 0.00 0.00 0.00 65 1019.2
20260830211425 68 219 5.0 7.0 0.00 0.00 0.00 63 1019.3
20260830210724 68 184 4.0 7.0 0.00 0.00 0.00 63 1019.2
20260830210225 68 257 4.0 10.0 0.00 0.00 0.00 64 1019.3
20260830205525 68 188 6.0 10.0 0.00 0.00 0.00 62 1019.3
20260830205025 68 202 10.0 10.0 0.00 0.00 0.00 64 1019.3
20260830204124 68 246 7.0 7.0 0.00 0.00 0.00 63 1019.3
20260830203625 68 279 4.0 6.0 0.00 0.00 0.00 62 1019.7
20260830202924 68 267 4.0 6.0 0.00 0.00 0.00 63 1019.5
20260830202424 68 190 1.0 5.0 0.00 0.00 0.00 63 1019.5
20260830201924 67 140 0.0 9.0 0.00 0.00 0.00 64 1019.6
20260830201425 67 212 5.0 9.0 0.00 0.00 0.00 64 1019.7
20260830200925 67 222 7.0 7.0 0.00 0.00 0.00 66 1019.6
20260830200424 67 240 1.0 7.0 0.00 0.00 0.00 65 1019.7
20260830195924 67 221 4.0 9.0 0.00 0.00 0.00 64 1019.7
20260830195224 67 191 4.0 9.0 0.00 0.00 0.00 65 1019.6
20260830194724 66 236 2.0 10.0 0.00 0.00 0.00 67 1019.7
20260830194225 67 206 8.0 10.0 0.00 0.00 0.00 64 1019.7
20260830193524 67 245 4.0 10.0 0.00 0.00 0.00 63 1019.6
20260830193024 68 257 5.0 9.0 0.00 0.00 0.00 64 1019.7
20260830192524 67 184 1.0 9.0 0.00 0.00 0.00 63 1019.8
20260830192024 66 191 5.0 9.0 0.00 0.00 0.00 65 1019.9
20260830191324 67 205 6.0 9.0 0.00 0.00 0.00 64 1019.9
20260830190825 66 201 9.0 9.0 0.00 0.00 0.00 65 1019.8
20260830190325 65 275 3.0 7.0 0.00 0.00 0.00 68 1020.0
20260830185824 65 360 3.0 7.0 0.00 0.00 0.00 66 1020.1
20260830185325 66 209 3.0 7.0 0.00 0.00 0.00 65 1020.1
20260830184824 67 206 4.0 8.0 0.00 0.00 0.00 64 1020.1
20260830184325 67 171 4.0 8.0 0.00 0.00 0.00 65 1020.0
20260830183824 67 223 5.0 6.0 0.00 0.00 0.00 63 1020.0
20260830183324 67 200 6.0 6.0 0.00 0.00 0.00 65 1020.0
20260830182824 66 258 2.0 4.0 0.00 0.00 0.00 65 1019.9
20260830182325 65 360 0.0 5.0 0.00 0.00 0.00 68 1019.9
20260830181825 64 230 2.0 5.0 0.00 0.00 0.00 68 1019.9
20260830181325 64 206 5.0 5.0 0.00 0.00 0.00 69 1020.0
20260830180824 64 173 5.0 6.0 0.00 0.00 0.00 71 1019.9
20260830180324 64 188 3.0 6.0 0.00 0.00 0.00 72 1019.9
20260830175824 64 360 6.0 6.0 0.00 0.00 0.00 72 1020.0
20260830175324 64 211 5.0 5.0 0.00 0.00 0.00 74 1020.0
20260830174825 64 237 3.0 4.0 0.00 0.00 0.00 73 1020.0
20260830174125 65 33 3.0 4.0 0.00 0.00 0.00 72 1020.0
20260830173624 64 59 2.0 4.0 0.00 0.00 0.00 73 1020.2
20260830173125 64 216 2.0 3.0 0.00 0.00 0.00 78 1020.3
20260830172424 62 187 2.0 4.0 0.00 0.00 0.00 79 1020.3
20260830171925 61 220 2.0 4.0 0.00 0.00 0.00 81 1020.3
20260830171224 60 360 2.0 4.0 0.00 0.00 0.00 85 1020.2
20260830170724 59 214 2.0 4.0 0.00 0.00 0.00 85 1020.3
20260830170225 59 214 1.0 4.0 0.00 0.00 0.00 87 1020.4
20260830165724 59 360 3.0 4.0 0.00 0.00 0.00 88 1020.3
20260830165225 58 360 0.0 3.0 0.00 0.00 0.00 90 1020.4
20260830164325 56 360 2.0 3.0 0.00 0.00 0.00 91 1020.4
20260830163825 56 194 2.0 4.0 0.00 0.00 0.00 91 1020.4
20260830163325 56 191 2.0 4.0 0.00 0.00 0.00 92 1020.7
20260830162825 56 360 3.0 3.0 0.00 0.00 0.00 94 1020.7
20260830162124 55 360 3.0 4.0 0.00 0.00 0.00 95 1020.8
20260830161624 54 360 4.0 4.0 0.00 0.00 0.00 97 1020.8
20260830161124 54 360 0.0 2.0 0.00 0.00 0.00 97 1020.9
20260830160625 53 360 2.0 2.0 0.00 0.00 0.00 98 1021.0
20260830160125 53 360 1.0 2.0 0.00 0.00 0.00 98 1020.9
20260830155624 53 83 2.0 2.0 0.00 0.00 0.00 99 1020.9
20260830154924 52 76 2.0 2.0 0.00 0.00 0.00 99 1020.9
20260830154424 52 76 2.0 2.0 0.00 0.00 0.00 99 1020.9
20260830153725 51 355 2.0 3.0 0.00 0.00 0.00 100 1020.9
20260830153224 50 355 2.0 3.0 0.00 0.00 0.00 99 1020.9
20260830152725 50 346 2.0 2.0 0.00 0.00 0.00 99 1020.9
20260830152224 50 346 1.0 2.0 0.00 0.00 0.00 99 1021.0
20260830151724 50 346 2.0 2.0 0.00 0.00 0.00 99 1021.0
20260830151224 50 346 2.0 2.0 0.00 0.00 0.00 99 1021.1
20260830150524 49 346 0.0 2.0 0.00 0.00 0.00 99 1021.1
20260830145824 49 346 1.0 2.0 0.00 0.00 0.00 99 1021.0
20260830145124 49 346 0.0 1.0 0.00 0.00 0.00 99 1021.0
20260830144625 49 346 1.0 1.0 0.00 0.00 0.00 99 1020.9
20260830144124 48 346 0.0 1.0 0.00 0.00 0.00 99 1021.0
20260830143624 48 346 0.0 0.0 0.00 0.00 0.00 99 1020.9
20260830143125 48 346 0.0 0.0 0.00 0.00 0.00 99 1020.8
20260830142425 48 346 0.0 0.0 0.00 0.00 0.00 99 1020.8
20260830141925 47 346 0.0 0.0 0.00 0.00 0.00 99 1020.8
20260830141424 47 346 0.0 0.0 0.00 0.00 0.00 99 1020.8
20260830140924 47 346 0.0 0.0 0.00 0.00 0.00 99 1020.8
20260830140425 46 346 0.0 0.0 0.00 0.00 0.00 99 1020.8
20260830135924 46 346 0.0 0.0 0.00 0.00 0.00 99 1020.8
20260830135424 46 346 0.0 0.0 0.00 0.00 0.00 99 1020.7
20260830134924 46 346 0.0 0.0 0.00 0.00 0.00 99 1020.7
20260830134425 45 346 0.0 0.0 0.00 0.00 0.00 99 1020.6
20260830133924 45 346 0.0 1.0 0.00 0.00 0.00 98 1020.7
20260830133425 44 346 0.0 1.0 0.00 0.00 0.00 98 1020.8
20260830132924 45 346 0.0 2.0 0.00 0.00 0.00 97 1020.7
20260830132424 45 346 0.0 2.0 0.00 0.00 0.00 97 1020.7
20260830131925 45 346 0.0 1.0 0.00 0.00 0.00 98 1020.8
20260830131225 45 346 0.0 1.0 0.00 0.00 0.00 97 1020.6
20260830130724 45 346 0.0 1.0 0.00 0.00 0.00 97 1020.5
20260830130225 45 346 0.0 1.0 0.00 0.00 0.00 97 1020.6
20260830125524 45 346 1.0 1.0 0.00 0.00 0.00 97 1020.4
20260830125025 45 346 0.0 0.0 0.00 0.00 0.00 97 1020.5
20260830124524 45 346 0.0 0.0 0.00 0.00 0.00 97 1020.6
20260830124025 46 346 0.0 0.0 0.00 0.00 0.00 97 1020.6
20260830123524 46 346 0.0 0.0 0.00 0.00 0.00 97 1020.6
20260830123025 46 346 0.0 1.0 0.00 0.00 0.00 97 1020.6
20260830122124 46 346 0.0 1.0 0.00 0.00 0.00 96 1020.5
20260830121624 47 346 0.0 1.0 0.00 0.00 0.00 96 1020.5
20260830121124 47 346 0.0 1.0 0.00 0.00 0.00 97 1020.5
20260830120624 47 346 0.0 1.0 0.00 0.00 0.00 97 1020.4
20260830120125 48 346 0.0 2.0 0.00 0.00 0.00 97 1020.3
20260830115424 48 346 1.0 2.0 0.00 0.00 0.00 97 1020.2
20260830114925 48 346 1.0 1.0 0.00 0.00 0.00 97 1020.3
20260830114424 48 346 1.0 1.0 0.00 0.00 0.00 98 1020.1
20260830113924 48 346 1.0 2.0 0.00 0.00 0.00 98 1020.3
20260830113225 48 346 2.0 2.0 0.00 0.00 0.00 98 1020.3
20260830112725 48 346 2.0 2.0 0.00 0.00 0.00 98 1020.3
20260830112224 48 346 0.0 2.0 0.00 0.00 0.00 98 1020.3
20260830111724 47 346 1.0 2.0 0.00 0.00 0.00 98 1020.3
20260830111225 47 346 0.0 1.0 0.00 0.00 0.00 98 1020.3
20260830110725 47 346 1.0 1.0 0.00 0.00 0.00 98 1020.3
20260830110225 47 346 0.0 1.0 0.00 0.00 0.00 98 1020.3
20260830105724 47 346 0.0 1.0 0.00 0.00 0.00 97 1020.3
20260830105224 47 346 0.0 1.0 0.00 0.00 0.00 97 1020.4
20260830104724 47 346 1.0 1.0 0.00 0.00 0.00 97 1020.4
20260830104024 47 346 0.0 1.0 0.00 0.00 0.00 97 1020.4
20260830103525 47 346 1.0 1.0 0.00 0.00 0.00 97 1020.4
20260830103025 48 346 0.0 1.0 0.00 0.00 0.00 97 1020.4
20260830102525 48 346 0.0 1.0 0.00 0.00 0.00 97 1020.4
20260830101625 48 346 1.0 1.0 0.00 0.00 0.00 98 1020.3
20260830100724 47 346 0.0 0.0 0.00 0.00 0.00 98 1020.3
20260830100224 47 346 0.0 0.0 0.00 0.00 0.00 97 1020.2
20260830095724 47 346 0.0 0.0 0.00 0.00 0.00 97 1020.3
20260830095225 47 346 0.0 0.0 0.00 0.00 0.00 97 1020.3
20260830094724 47 346 0.0 0.0 0.00 0.00 0.00 97 1020.3
20260830094224 47 346 0.0 0.0 0.00 0.00 0.00 97 1020.2
20260830093525 47 346 0.0 0.0 0.00 0.00 0.00 96 1020.1
20260830092825 48 346 0.0 0.0 0.00 0.00 0.00 96 1020.0
20260830092324 48 346 0.0 1.0 0.00 0.00 0.00 96 1020.2
20260830091824 48 346 0.0 1.0 0.00 0.00 0.00 96 1020.3
20260830090924 48 346 0.0 2.0 0.00 0.00 0.00 97 1020.4
20260830090424 48 346 1.0 2.0 0.00 0.00 0.00 97 1020.3
20260830085924 49 346 0.0 1.0 0.00 0.00 0.00 97 1020.1
20260830085424 49 346 0.0 1.0 0.00 0.00 0.00 97 1020.1
20260830084925 48 346 1.0 1.0 0.00 0.00 0.00 98 1020.4
20260830084425 48 346 0.0 1.0 0.00 0.00 0.00 98 1020.4
20260830083924 48 346 1.0 3.0 0.00 0.00 0.00 98 1020.4
20260830083425 48 346 0.0 4.0 0.00 0.00 0.00 98 1020.5
20260830082924 48 346 3.0 4.0 0.00 0.00 0.00 98 1020.4
20260830082425 48 194 0.0 1.0 0.00 0.00 0.00 98 1020.3
20260830081725 47 360 0.0 2.0 0.00 0.00 0.00 97 1020.3
20260830081025 47 360 2.0 2.0 0.00 0.00 0.00 97 1020.3
20260830080525 47 360 0.0 0.0 0.00 0.00 0.00 97 1020.3
20260830080025 47 194 0.0 0.0 0.00 0.00 0.00 97 1020.3
20260830075524 47 360 0.0 0.0 0.00 0.00 0.00 97 1020.4
20260830075025 47 360 0.0 1.0 0.00 0.00 0.00 97 1020.3
20260830074524 47 360 0.0 1.0 0.00 0.00 0.00 97 1020.4
20260830074024 47 360 0.0 0.0 0.00 0.00 0.00 97 1020.3
20260830073524 47 360 0.0 1.0 0.00 0.00 0.00 97 1020.3
20260830073024 47 360 0.0 1.0 0.00 0.00 0.00 97 1020.3
20260830072525 47 360 0.0 1.0 0.00 0.00 0.00 97 1020.3
20260830071726 47 360 0.0 2.0 0.00 0.00 0.00 97 1020.3
20260830071224 47 360 1.0 2.0 0.00 0.00 0.00 96 1020.3
20260830070725 47 360 2.0 2.0 0.00 0.00 0.00 95 1020.4
20260830070024 47 360 1.0 1.0 0.00 0.00 0.00 96 1020.4
20260830065524 48 360 0.0 0.0 0.00 0.00 0.00 95 1020.4
20260830065024 48 360 0.0 0.0 0.00 0.00 0.00 96 1020.4
20260830064525 48 360 0.0 1.0 0.00 0.00 0.00 96 1020.4
20260830064025 48 194 0.0 1.0 0.00 0.00 0.00 96 1020.4
20260830063524 48 360 0.0 2.0 0.00 0.00 0.00 96 1020.4
20260830063024 48 360 1.0 2.0 0.00 0.00 0.00 96 1020.3
20260830062524 48 360 2.0 2.0 0.00 0.00 0.00 95 1020.4
20260830062025 48 360 1.0 1.0 0.00 0.00 0.00 95 1020.4
20260830061525 48 360 0.0 1.0 0.00 0.00 0.00 95 1020.4
20260830061024 49 360 0.0 1.0 0.00 0.00 0.00 93 1020.4
20260830060324 50 360 1.0 1.0 0.00 0.00 0.00 94 1020.5
20260830055824 50 360 0.0 1.0 0.00 0.00 0.00 95 1020.5
20260830055324 50 360 1.0 1.0 0.00 0.00 0.00 95 1020.5
20260830054825 50 360 0.0 1.0 0.00 0.00 0.00 93 1020.5
20260830054225 50 360 0.0 2.0 0.00 0.00 0.00 94 1020.5
20260830053724 50 360 1.0 2.0 0.00 0.00 0.00 93 1020.5
20260830053224 50 360 0.0 1.0 0.00 0.00 0.00 92 1020.5
20260830052524 51 360 0.0 1.0 0.00 0.00 0.00 91 1020.6
20260830052024 51 360 0.0 1.0 0.00 0.00 0.00 90 1020.6
20260830051524 52 360 0.0 1.0 0.00 0.00 0.00 90 1020.5
20260830051024 52 360 0.0 1.0 0.00 0.00 0.00 89 1020.5
20260830050325 53 194 0.0 0.0 0.00 0.00 0.00 90 1020.4
20260830045624 53 360 0.0 1.0 0.00 0.00 0.00 90 1020.4
20260830045125 54 195 0.0 1.0 0.00 0.00 0.00 90 1020.3
20260830044624 54 195 0.0 1.0 0.00 0.00 0.00 91 1020.4
20260830044124 54 195 1.0 1.0 0.00 0.00 0.00 90 1020.4
20260830043624 54 195 1.0 1.0 0.00 0.00 0.00 89 1020.3
20260830043124 54 195 0.0 2.0 0.00 0.00 0.00 88 1020.3
20260830042624 54 195 0.0 2.0 0.00 0.00 0.00 87 1020.2
20260830042125 55 195 0.0 3.0 0.00 0.00 0.00 87 1020.1
20260830041624 55 195 2.0 3.0 0.00 0.00 0.00 86 1020.0
20260830041125 56 195 0.0 2.0 0.00 0.00 0.00 87 1020.0
20260830040424 56 195 0.0 1.0 0.00 0.00 0.00 86 1020.0
20260830035925 56 195 0.0 4.0 0.00 0.00 0.00 86 1019.9
20260830035424 56 195 1.0 4.0 0.00 0.00 0.00 87 1019.8
20260830034925 56 195 0.0 1.0 0.00 0.00 0.00 86 1019.8
20260830034225 56 195 0.0 3.0 0.00 0.00 0.00 85 1019.7
20260830033724 56 195 1.0 3.0 0.00 0.00 0.00 85 1019.7